Location: Killam
(52.7910°N, 111.8608°W)
Time: 05:43:44
(UTC+00:00)

Gurwin Techsat 1B - Pass Details

Date: 19 March 2026
Orbit: 809 x 812 km, 99.0° (Epoch: 15 April)

Event Time Altitude Azimuth Distance (km) Brightness Sun altitude
Rises 10:54:38 0° 31° (NNE) 3,342 12.9 -23.3°
Reaches altitude 10° 10:59:03 10° 66° (ENE) 2,402 12.2 -22.8°
Maximum altitude 11:00:33 11° 83° (E) 2,319 11.9 -22.6°
Drops below altitude 10° 11:02:04 10° 100° (E) 2,397 11.7 -22.4°
Sets 11:06:26 0° 134° (SE) 3,321 12.0 -21.8°
